星链-3727 (STARLINK-3727 )

导读 | 豆包AI

STARLINK-3727是美国太空探索技术公司(SpaceX)星链星座的组网卫星,于2022年3月19日发射入轨。作为星链低轨互联网星座的组成部分,它承担着向全球提供高速低延迟互联网接入服务的任务,推进了星链星座全球覆盖的进程,也体现了美国在商业低轨卫星星座部署上的持续进展。

基本信息
目录编号:
52125
目录名称:
STARLINK-3727
国际标识:
2022-029AP
轨道中心:
EARTH
卫星名称:
星链-3727
卫星全名:
星链-3727 (STARLINK-3727 )
卫星状态:
在轨 (已飞行1456 天)
发射日期:
2022-03-19 UTC
国别 :
美国 (US)
星等 :
--
轨道信息
数据来源 国际轨道数据
星历时间: 2026-03-14T12:39:36+0800
17小时前
查看轨道信息
半长轴: 6917.81km
偏心率: 0.0002373
轨道倾角: 53.218°
近地点辐角 63.472°
升交点赤经 48.903°
平近点角 296.652°
近地点: 538.031km
远地点: 541.315km
周期: 95.436分钟
每日圈数: 15.088631
详细信息
固有亮度:
5
最大亮度:
2.5
卫星平台:
Starlink v1.5
覆盖范围:
全球
运营商:
太空探索技术公司
运营商所在国:
美国
制造商(研发单位):
太空探索技术公司
制造商所在国:
美国
使用方式:
暂无
卫星简介
星链(Starlink)计划是由太空探索技术公司(SpaceX)提出的一个巨型低轨卫星互联网星座项目,计划在2019年至2024年间在太空搭建由约1.2万颗卫星组成的“星链”网络,其中1584颗将部署在地球上空550千米处的近地轨道,并从2020年开始工作。该卫星仍在工作。
2D轨道图
3D轨道图
轨道高度分析图
轨道倾角分析图
轨道综合分析图
查看轨道综合分析图